Location: Milton
(43.5183°N, 79.8775°W)
Time: 10:26:16
(UTC+00:00)

COSMOS 2251 DEB - Pass Details

Date: 14 December 2023
Orbit: 708 x 767 km, 74.0° (Epoch: 04 March)

Event Time Altitude Azimuth Distance (km) Brightness Sun altitude
Exits shadow 09:33:06 14° 24° (NNE) 1,998 ? -33.7°
Maximum altitude 09:35:18 18° 54° (NE) 1,794 ? -33.3°
Drops below altitude 10° 09:38:51 10° 97° (E) 2,297 ? -32.7°
Sets 09:41:58 0° 116° (ESE) 3,225 ? -32.1°
